FLOCK 2'-5

Last updated on Tue Aug 02 2016 17:39:13 GMT+0000 (Coordinated Universal Time)

1 41616U 16040T 16215.41867132 .00001550 00000-0 75174-4 0 9995 2 41616 97.5061 274.3687 0013294 114.4582 245.8041 15.19962141 6198
UTC large
Height (km)
Speed (km/s)
/
Latitude / Longitude
Inclination (degrees)
Orbital Period (minutes)
Azimuth
Elevation
Range (km)
Doppler Factor

Next 0 passes for location: London (51.5072 / 0.1276)

Sorry there are no passes over London.